Regional Weather Roundup
Issued by NWS Cleveland, OH

Home | Current Version | Previous Version | Graphics & Text | Print | Product List | Glossary On
Versions: 1 2 3 4 5 6 7 8 9 10 11 12 13 14 15 16 17 18 19 20 21 22 23 24 25 26 27 28 29 30 31 32 33 34 35 36 37 38 39 40 41 42 43 44 45 46 47 48 49 50
000
ASUS41 KCLE 260810
RWRCLE
OHIO REGIONAL WEATHER ROUNDUP
NATIONAL WEATHER SERVICE CLEVELAND, OH
300 AM EST SUN FEB 26 2017

NOTE: "FAIR" INDICATES FEW OR NO CLOUDS BELOW 12,000 FEET WITH NO
SIGNIFICANT WEATHER AND/OR OBSTRUCTIONS TO VISIBILITY.

OHZ001>008-015>018-024>027-034-035-043-044-260900-
   NORTHWEST OHIO

CITY           SKY/WX    TMP DP  RH WIND       PRES   REMARKS
DEFIANCE       CLOUDY    25  17  72 VRB3      30.06R
FINDLAY        CLOUDY    27  14  58 W10       30.05R WCI  17
TOLEDO EXPRESS CLOUDY    25  18  74 W7        30.05R WCI  17
TOLEDO EXEC    CLOUDY    25  16  68 W12       30.06R WCI  14
LIMA           CLOUDY    25  20  81 N8        30.05R WCI  16
$$

OHZ009>014-019>023-028>033-038-089-260900-
   NORTHEAST OHIO

CITY           SKY/WX    TMP DP  RH WIND       PRES   REMARKS
CLE-HOPKINS    LGT SNOW  27  17  66 W13       30.04R WCI  16
CLE-LAKEFRONT  CLOUDY    28  18  66 W20       30.01R WCI  15
CUY CO. ARPT   NOT AVBL
LORAIN-ELYRIA  FLURRIES  24  17  74 W9        30.03R WCI  14
ASHTABULA      LGT SNOW  25  20  81 W12       29.98R WCI  14
AKRON-CANTON   FLURRIES  26  16  65 W13       29.99S WCI  15
WOOSTER        CLOUDY    26  17  68 W12       30.01S WCI  16
MANSFIELD      CLOUDY    24  17  74 W6        30.01R WCI  17
YOUNGSTOWN     FLURRIES  26  16  65 W12       29.97R WCI  16
$$

OHZ042-051>053-060>062-070>072-077>081-260900-
  SOUTHWEST OHIO

CITY           SKY/WX    TMP DP  RH WIND       PRES   REMARKS
CINC-COVINGTON CLEAR     25  16  68 W7        30.10R WCI  17
CINC-LUNKEN    CLEAR     29  17  61 W7        30.13R WCI  22
HAMILTON       PTCLDY    24  18  77 CALM      30.12R
DAYTON         CLOUDY    26  15  63 W13       30.07R WCI  15
WRIGHT-PAT AFB CLOUDY    27  15  60 W8        30.07R WCI  19
DAYTON GENERAL MOCLDY    27  17  66 W8        30.08R WCI  19
WILMINGTON     PTCLDY    26  18  71 W8        30.06R WCI  18
$$

OHZ036-037-039>041-045>050-054>059-063>069-073>076-082>088-260900-
  CENTRAL AND SOUTHEAST OHIO

CITY           SKY/WX    TMP DP  RH WIND       PRES   REMARKS
COLUMBUS       FLURRIES  31  16  54 W12       30.05R WCI  22
OSU AIRPORT    CLOUDY    29  16  58 W13       30.05R WCI  19
BOLTON FIELD   CLOUDY    29  17  60 W8        30.06R WCI  21
RICKENBACK AFB CLOUDY    30  18  60 W13       30.06S WCI  20
NEWARK         CLOUDY    30  16  56 W9        30.04S WCI  22
MARION         CLOUDY    27  18  69 NW8       30.04R WCI  19
LANCASTER      CLOUDY    32  18  56 W7        30.05S WCI  26
ZANESVILLE     CLOUDY    30  17  58 W10       30.04S WCI  21
NEW PHILLY     NOT AVBL
$$




USA.gov is the U.S. government's official web portal to all federal, state and local government web resources and services.